Regional Weather Roundup
Issued by NWS

Home | Current Version | Previous Version | Text Only | Print | Product List | Glossary Off
Versions: 1 2 3 4 5 6 7 8 9 10 11 12 13 14 15 16 17 18 19 20 21 22 23 24 25 26 27 28 29 30 31 32 33 34 35 36 37 38 39 40 41 42 43 44 45 46 47 48 49 50

000
ASUS43 KOAX 231510
RWRNE

WEATHER ROUNDUP FOR NEBRASKA
NATIONAL WEATHER SERVICE OMAHA NE
1000 AM CDT SAT AUG 23 2014

NOTES: SATELLITE DATA IS BEING USED TO AUGMENT CLOUD COVER ABOVE
       12000 FEET.
       "FAIR" INDICATES FEW OR NO CLOUDS BELOW 12,000 FEET WITH NO
       SIGNIFICANT WEATHER AND/OR OBSTRUCTIONS TO VISIBILITY.

  * THESE STATIONS DO NOT REPORT WEATHER SUCH AS RAIN...SNOW OR FOG.

NEZ001>004-019>022-054>056-231600-
NEBRASKA PANHANDLE

CITY           SKY/WX    TMP DP  RH WIND       PRES   REMARKS
SCOTTSBLUFF    CLOUDY    66  62  87 SW3       29.91S
ALLIANCE       CLOUDY    62  60  93 CALM      29.89F
CHADRON        CLOUDY    66  60  81 CALM      29.87F
KIMBALL        CLOUDY    61  58  90 W7        29.94F
SIDNEY         MOSUNNY   69  62  78 W12       29.92R
$$

NEZ057>060-069>072-079>082-231600-
SOUTHWEST NEBRASKA

CITY           SKY/WX    TMP DP  RH WIND       PRES   REMARKS
NORTH PLATTE   CLOUDY    67  65  93 E10       29.88S
IMPERIAL       PTSUNNY   70  65  84 E7        29.87S
LEXINGTON      CLOUDY    71  69  95 SE8       29.86S FOG
MCCOOK         PTSUNNY   70  66  87 CALM      29.86S
OGALLALA       CLOUDY    65  64  96 CALM      29.88S
$$

NEZ005>010-023>029-035>040-094-231600-
NORTH CENTRAL NEBRASKA

CITY           SKY/WX    TMP DP  RH WIND       PRES   REMARKS
VALENTINE      CLOUDY    69  67  93 SE13      29.86F
AINSWORTH      CLOUDY    69  67  94 SE9       29.89S
BROKEN BOW     CLOUDY    69  66  90 E12       29.88F
O`NEILL        CLOUDY    69  68  97 E7        29.91S
ORD            CLOUDY    69  66  90 E9        29.88S
THEDFORD       CLOUDY    69  67  94 SE7       29.89F
$$

NEZ041-046>049-061>064-073>077-083>087-231600-
SOUTH CENTRAL NEBRASKA

CITY           SKY/WX    TMP DP  RH WIND       PRES   REMARKS
GRAND ISLAND   CLOUDY    73  68  84 E14       29.88F
AURORA         PTSUNNY   73  72  94 SE13      29.89R
HASTINGS       CLOUDY    72  66  81 SE14      29.87S
HEBRON         MOSUNNY   77  68  74 SE12G17   29.88S
HOLDREGE       CLOUDY    71  68  90 S9        29.86S
KEARNEY *      CLOUDY    73  70  88 E14       29.87S
YORK           MOSUNNY   73 N/A N/A SE12      29.89S
$$

NEZ011>018-030>034-042>045-231600-
NORTHEAST NEBRASKA

CITY           SKY/WX    TMP DP  RH WIND       PRES   REMARKS
NORFOLK        PTSUNNY   71  67  87 E9        29.91R
ALBION         PTSUNNY   69  67  92 E8        29.91S
BLAIR          CLOUDY    75  71  88 E8        29.89S
FREMONT        CLOUDY    74  69  87 E5        29.90R
TEKAMAH        CLOUDY    74  69  85 E5        29.89R
WAYNE          CLOUDY    73  69  88 E8        29.92R
$$

NEZ050>053-065>068-078-088>093-231600-
SOUTHEAST NEBRASKA

CITY           SKY/WX    TMP DP  RH WIND       PRES   REMARKS
LINCOLN        MOSUNNY   77  70  79 SE12      29.88F
OMAHA EPPLEY   CLOUDY    77  71  82 SE9       29.88R
BEATRICE       SUNNY     78  71  81 SE9       29.88S
FALLS CITY     SUNNY     80  74  81 SE8       29.88F
NEBRASKA CITY  PTSUNNY   75  73  94 SE12      29.89F
PLATTSMOUTH    PTSUNNY   75  71  85 SE8       29.88F
$$

NEZ044-045-051>053-067-231600-
OMAHA AREA

CITY           SKY/WX    TMP DP  RH WIND       PRES   REMARKS
OMAHA EPPLEY   CLOUDY    77  71  82 SE9       29.88R
BLAIR          CLOUDY    75  71  88 E8        29.89S
FREMONT        CLOUDY    74  69  87 E5        29.90R
MILLARD        CLOUDY    76  72  85 SE12      29.87F
OFFUTT AFB     CLOUDY    76  76  99 SE10      29.88S
PLATTSMOUTH    PTSUNNY   75  71  85 SE8       29.88F
WAHOO          PTSUNNY   74  69  84 SE9       29.88S
$$



USA.gov is the U.S. government's official web portal to all federal, state and local government web resources and services.